Location: East Guldeford
(50.9500°N, 0.7500°E)
Time: 18:33:23
(UTC+00:00)

USA 215 - Pass Details

Date: 12 May 2021
Orbit: 1100 x 1107 km, 123.0° (Epoch: 14 June)

Event Time Altitude Azimuth Distance (km) Brightness Sun altitude
Rises 20:46:25 0° 75° (ENE) 3,920 5.9 -9.5°
Reaches altitude 10° 20:48:57 10° 71° (ENE) 2,963 5.3 -9.8°
Maximum altitude 20:55:15 53° 356° (N) 1,330 4.1 -10.5°
Drops below altitude 10° 21:01:34 10° 282° (WNW) 2,965 6.4 -11.1°
Sets 21:04:06 0° 278° (W) 3,923 7.0 -11.4°
